Vernal, UT

8:52 PM MST on November 20, 2017 (GMT -0700)
Vernal

Weather History for KVEL - May, 2014

Change the Weather History Date:

Sunday, May 4, 2014

  Actual Average Record
Temperature  
Mean Temperature 64 °F 53 °F  
Max Temperature 81 °F 66 °F 87 °F (1947)
Min Temperature 46 °F 40 °F 20 °F (1950)
Degree Days  
Heating Degree Days 1 12  
Month to date heating degree days 36 51  
Since 1 July heating degree days 7124 6930  
Cooling Degree Days 0 0  
Month to date cooling degree days 0 0  
Year to date cooling degree days 0 0  
Growing Degree Days 14 (Base 50)    
Moisture  
Dew Point 18 °F    
Average Humidity 26    
Maximum Humidity 45    
Minimum Humidity 7    
Precipitation  
Precipitation 0.00 in 0.04 in 0.56 in (1950)
Month to date precipitation 0.00 0.14  
Year to date precipitation 1.83 2.66  
Sea Level Pressure  
Sea Level Pressure 29.71 in    
Wind  
Wind Speed 7 mph (West)    
Max Wind Speed 25 mph    
Max Gust Speed 35 mph    
Visibility 10 miles    
Events      
T = Trace of Precipitation, MM = Missing Value Source: NWS Daily Summary

Daily Weather History Graph

Daily Weather History Graph

Search for Another Location

Airport or City:

Trip Planner

Search our weather history database for the weather conditions in past years. The results will help you decide how hot, cold, wet, or windy it might be!

Date:

Astronomy

May. 04, 2014 Rise Set
Actual Time 6:13 AM MDT 8:16 PM MDT
Civil Twilight 5:43 AM MDT 8:46 PM MDT
Nautical Twilight 5:07 AM MDT 9:23 PM MDT
Astronomical Twilight 4:27 AM MDT 10:03 PM MDT
Moon 10:40 AM MDT (5/4) 12:24 AM MDT (5/4)
Length of Visible Light 15h 03m
Length of Day
14h 03m
Waxing Crescent, 28% of the Moon is Illuminated
May 4
Waxing Crescent
May 6
First Quarter
May 14
Full
May 21
Last Quarter
May 28
New

Hourly Weather History & Observations

Time (MDT) Temp. Windchill Dew Point Humidity Pressure Visibility Wind Dir Wind Speed Gust Speed Precip Events Conditions
12:53 AM 62.1 °F - 17.1 °F 18% 29.73 in 10.0 mi WSW 4.6 mph - N/A   Clear
1:53 AM 51.1 °F - 24.1 °F 35% 29.74 in 10.0 mi ENE 4.6 mph - N/A   Clear
2:53 AM 48.0 °F - 25.0 °F 41% 29.74 in 10.0 mi WNW 4.6 mph - N/A   Clear
3:53 AM 46.0 °F 43.1 °F 26.1 °F 46% 29.74 in 10.0 mi WNW 5.8 mph - N/A   Clear
4:53 AM 46.9 °F - 25.0 °F 42% 29.75 in 10.0 mi WNW 4.6 mph - N/A   Clear
5:53 AM 48.9 °F - 24.1 °F 38% 29.75 in 10.0 mi West 3.5 mph - N/A   Clear
6:53 AM 48.0 °F - 25.0 °F 41% 29.77 in 10.0 mi WNW 5.8 mph - N/A   Clear
7:53 AM 51.1 °F - 27.0 °F 39% 29.79 in 10.0 mi WNW 4.6 mph - N/A   Clear
8:53 AM 60.1 °F - 28.0 °F 30% 29.78 in 10.0 mi Calm Calm - N/A   Clear
9:53 AM 64.9 °F - 21.9 °F 19% 29.77 in 10.0 mi Variable 4.6 mph - N/A   Clear
10:53 AM 69.1 °F - 18.0 °F 14% 29.75 in 10.0 mi Calm Calm - N/A   Clear
11:53 AM 73.0 °F - 16.0 °F 11% 29.72 in 10.0 mi Calm Calm - N/A   Clear
12:53 PM 75.9 °F - 16.0 °F 10% 29.69 in 10.0 mi SW 9.2 mph 19.6 mph N/A   Clear
1:53 PM 80.1 °F - 10.9 °F 7% 29.68 in 10.0 mi WSW 16.1 mph 25.3 mph N/A   Clear
2:53 PM 81.0 °F - 10.9 °F 7% 29.66 in 10.0 mi West 16.1 mph 28.8 mph N/A   Clear
3:53 PM 79.0 °F - 10.0 °F 7% 29.66 in 10.0 mi West 13.8 mph 24.2 mph N/A   Clear
4:53 PM 79.0 °F - 10.9 °F 8% 29.65 in 10.0 mi West 16.1 mph 26.5 mph N/A   Clear
5:53 PM 77.0 °F - 9.0 °F 7% 29.66 in 10.0 mi WSW 15.0 mph 31.1 mph N/A   Clear
6:53 PM 77.0 °F - 10.0 °F 8% 29.66 in 10.0 mi WSW 11.5 mph 19.6 mph N/A   Clear
7:53 PM 75.0 °F - 10.9 °F 9% 29.67 in 10.0 mi WSW 9.2 mph - N/A   Clear
8:53 PM 71.1 °F - 12.0 °F 10% 29.67 in 10.0 mi West 8.1 mph - N/A   Clear
9:53 PM 71.1 °F - 10.0 °F 9% 29.66 in 10.0 mi West 8.1 mph - N/A   Clear
10:53 PM 62.1 °F - 19.0 °F 19% 29.70 in 10.0 mi SSE 4.6 mph - N/A   Clear